マセニー彗星

C/2016 T2 ( Matheny )

English version
Home page
Updated on January 8, 2018

---------------------------------------------------------------------

・ プロフィール

発見日 2016年10月10日
発見光度 18.6等
発見者 Rose G. Matheny (Mount Lemmon Survey)

・ 写真集

・ 軌道要素

Epoch 2017 Jan. 7.0 TT = JDT 2457760.5
T 2016 Dec. 29.09858 TT                                 MPCW
q   1.9078097            (2000.0)            P               Q
z  +0.0098347      Peri.   92.28124     +0.01666550     -0.93560515
 +/-0.0000036      Node   339.09933     -0.25049135     +0.33754899
e   0.9812373      Incl.   81.31112     +0.96797538     +0.10345865
From 157 observations 2016 Oct. 10-2017 Nov. 25, mean residual 0".5.

・ 光度変化

        m1 = 13.0 + 5 logΔ + 10.0 log r

---------------------------------------------------------------------

軌道要素はM.P.E.C. 2017-X08に掲載されたものです。
光度グラフはComet for Windowsで作成したものです。

---------------------------------------------------------------------

Copyright(C) Seiichi Yoshida (comet@aerith.net). All rights reserved.